[[{"header":{"parameterUnit":"m.s-1","parameterCategory":1,"la1":30.2991,"la2":30.254,"lo1":-89.0895,"lo2":-89.0444,"dy":0.0017,"dx":0.0017,"nx":28,"ny":28,"refTime":"2024-11-28T03:00:00:Z","depth":0,"parameterNumber":2,"parameterNumberName":"U-component_of_WINDS"},"data":[0,0,0,0,0,0,0,0,0,0,0,0,0,0,0,0,0,0,0,0,0,0,0,0,0,0,0,0,0,0,0,0,0,0,0,0,0,0,0,0,0,0,0,0,0,0,0,0,0,0,0,0,0,0,0,0,0,0,-0.859,-0.859,0,-0.8635,-0.8635,-0.8636,-0.8613,-0.8612,-0.861,-0.8609,-0.8657,-0.8659,-0.8661,0,0,0,0,0,0,0,0,0,0,0,0,0,-0.8484,-0.8486,-0.859,-0.859,-0.8591,-0.8635,-0.8635,-0.8636,-0.8613,-0.8611,-0.861,-0.8609,-0.8656,-0.8659,-0.8662,0,0,0,0,0,0,0,0,0,0,0,0,0,-0.853,-0.8487,-0.8589,-0.8585,-0.8585,-0.8634,-0.8635,-0.8636,-0.8613,-0.8611,-0.861,-0.8608,-0.8655,-0.8658,-0.8662,-0.872,0,0,-0.8673,-0.8674,0,0,0,0,0,0,0,0,-0.8527,-0.8533,-0.8585,-0.8585,-0.8585,-0.8616,-0.8615,-0.8664,-0.8614,-0.8602,-0.8609,-0.8607,-0.8645,-0.8649,-0.8661,-0.8722,-0.8724,-0.8673,-0.8675,-0.8677,-0.8678,0,0,0,0,0,0,0,-0.8524,-0.8531,-0.8607,-0.8585,-0.8586,-0.858,-0.8585,-0.8624,-0.8633,-0.8603,-0.8602,-0.8607,-0.8644,-0.8658,-0.8662,-0.8725,-0.8673,-0.8676,-0.8678,-0.868,-0.8834,-0.8836,0,0,0,0,0,0,-0.8521,-0.8529,-0.8606,-0.8609,-0.8551,-0.8583,-0.8589,-0.8608,-0.8633,-0.8635,-0.8609,-0.8606,-0.8653,-0.8658,-0.8664,-0.8733,-0.8677,-0.868,-0.8682,-0.8832,-0.8834,-0.8837,0,0,0,0,0,0,-0.8519,-0.8528,-0.8604,-0.8568,-0.8578,-0.8587,-0.8609,-0.861,-0.8623,-0.8637,-0.8638,-0.8621,-0.8652,-0.8659,-0.8706,-0.8735,-0.8682,-0.8685,-0.883,-0.8833,-0.8835,-0.8872,0,0,0,0,0,0,-0.8516,-0.8527,-0.855,-0.8569,-0.858,-0.8645,-0.8611,-0.8612,-0.8629,-0.8626,-0.8649,-0.8651,-0.8651,-0.8701,-0.8709,-0.8739,-0.8688,-0.8827,-0.8831,-0.8835,-0.8869,-0.8876,-0.8883,0,0,0,0,0,-0.8512,-0.8559,-0.8551,-0.856,-0.8608,-0.8647,-0.8653,-0.8652,-0.8632,-0.8654,-0.8662,-0.865,-0.873,-0.8706,-0.8715,-0.8746,-0.8825,-0.883,-0.8834,-0.8866,-0.8875,-0.8882,0,0,0,0,0,0,-0.8543,-0.8561,-0.8553,-0.8607,-0.8625,-0.8643,-0.8672,-0.8662,-0.8687,-0.8683,-0.8681,-0.8686,-0.8735,-0.8745,-0.8718,-0.8803,-0.8774,-0.8781,-0.8795,-0.8804,-0.8811,-0.8808,-0.8691,0,0,0,0,0,-0.8556,-0.8586,-0.86,-0.8647,-0.8656,-0.8662,-0.868,-0.8677,-0.8696,-0.8704,-0.8716,-0.8736,-0.8765,-0.8785,-0.8812,-0.8869,-0.8874,-0.8895,-0.8902,-0.8908,-0.8914,-0.8944,-0.8954,-0.8851,-0.8851,-0.8851,0,0,-0.8583,-0.8597,-0.8617,-0.8653,-0.8668,-0.8699,-0.8669,-0.8704,-0.8728,-0.871,-0.8755,-0.8764,-0.8785,-0.8837,-0.8861,-0.8847,-0.8943,-0.8913,-0.8918,-0.8921,-0.895,-0.896,-0.8968,-0.8854,-0.8853,-0.8853,0,0,-0.865,-0.8663,-0.8703,-0.8717,-0.8739,-0.8742,-0.8752,-0.877,-0.8776,-0.882,-0.8807,-0.8835,-0.8886,-0.8902,-0.8916,-0.8987,-0.8976,-0.8996,-0.9033,-0.9063,-0.9071,-0.9078,-0.9104,-0.9113,-0.9001,-0.9001,-0.9002,0,-0.8682,-0.8729,-0.8725,-0.8761,-0.8777,-0.8761,-0.8802,-0.8816,-0.8846,-0.8857,-0.8841,-0.8904,-0.8917,-0.8972,-0.8989,-0.9002,-0.9013,-0.8994,-0.907,-0.9077,-0.9084,-0.9108,-0.9118,-0.9004,-0.9004,-0.9003,-0.9003,0,-0.8767,-0.88,-0.8829,-0.8858,-0.8877,-0.8915,-0.8917,-0.8937,-0.8932,-0.8937,-0.8983,-0.8998,-0.9028,-0.904,-0.9036,-0.9095,-0.9086,-0.907,-0.9042,-0.9096,-0.9119,-0.9128,-0.9007,-0.9006,-0.9006,-0.9005,0,0,-0.8856,-0.8881,-0.8892,-0.8904,-0.8926,-0.8951,-0.8988,-0.9017,-0.9034,-0.9054,-0.9086,-0.9128,-0.9113,-0.9129,-0.9126,-0.9152,-0.9207,-0.9133,-0.9133,-0.9147,-0.9273,-0.9286,-0.9297,-0.9199,-0.9201,-0.9202,-0.9271,0,-0.8925,-0.8989,-0.8986,-0.9047,-0.9077,-0.9061,-0.9093,-0.9109,-0.9114,-0.914,-0.9146,-0.9176,-0.9153,-0.9163,-0.9188,-0.9195,-0.9233,-0.919,-0.9229,-0.923,-0.9225,-0.9309,-0.9323,-0.9387,-0.928,-0.9282,-0.9283,0,-0.9014,-0.9037,-0.91,-0.9116,-0.9129,-0.9158,-0.9184,-0.9209,-0.9227,-0.9228,-0.9246,-0.9239,-0.9275,-0.9245,-0.9296,-0.9267,-0.9282,-0.9288,-0.929,-0.9295,-0.9261,-0.9317,-0.9408,-0.9418,-0.9297,-0.9296,-0.9295,0,-0.9074,-0.912,-0.9164,-0.9175,-0.9195,-0.9215,-0.9225,-0.9241,-0.9258,-0.928,-0.9292,-0.9318,-0.9333,-0.9353,-0.9353,-0.933,-0.9404,-0.9374,-0.9407,-0.9407,-0.9425,-0.9424,-0.9521,-0.9433,-0.9433,-0.9433,-0.9432,0,-0.9152,-0.9192,-0.9191,-0.9218,-0.9262,-0.9257,-0.93,-0.9307,-0.9322,-0.935,-0.9337,-0.9363,-0.9361,-0.9387,-0.9387,-0.9429,-0.9436,-0.9438,-0.9438,-0.944,-0.944,-0.9451,-0.9447,-0.9435,-0.9435,-0.9434,-0.9434,0,-0.9228,-0.9229,-0.9275,-0.9289,-0.9294,-0.9325,-0.9338,-0.9363,-0.9366,-0.9402,-0.941,-0.9415,-0.9445,-0.9446,-0.9481,-0.9481,-0.9533,-0.9527,-0.9527,-0.9526,-0.956,-0.9557,-0.9669,-0.9683,-0.9584,-0.9585,-0.9586,0,-0.9278,-0.9308,-0.9325,-0.9342,-0.9353,-0.9381,-0.9398,-0.9394,-0.9413,-0.9435,-0.9458,-0.9487,-0.951,-0.9559,-0.9566,-0.9593,-0.9588,-0.9625,-0.9592,-0.9593,-0.959,-0.9588,-0.9592,-0.9632,-0.9633,-0.9634,-0.9635,0,-0.9368,-0.9366,-0.9391,-0.9417,-0.9437,-0.9457,-0.9475,-0.949,-0.9488,-0.9509,-0.954,-0.9558,-0.9593,-0.9622,-0.9648,-0.9657,-0.9646,-0.9645,-0.9654,-0.9658,-0.9657,-0.9658,-0.9546,-0.9643,-0.9642,-0.9642,-0.9641,-0.9641,-0.9433,-0.9458,-0.9474,-0.9502,-0.9515,-0.9532,-0.9557,-0.9562,-0.9587,-0.9616,-0.9611,-0.9646,-0.9662,-0.9695,-0.9706,-0.9732,-0.972,-0.9733,-0.9737,-0.974,-0.9744,-0.9651,-0.9737,-0.9737,-0.9736,-0.9736,-0.9736,0,-0.9522,-0.9531,-0.9557,-0.9582,-0.9604,-0.959,-0.9609,-0.9629,-0.9659,-0.9675,-0.9698,-0.9733,-0.976,-0.9768,-0.9795,-0.9815,-0.981,-0.9822,-0.9821,-0.9824,-0.9754,-0.9744,-0.9825,-0.9825,-0.9825,-0.9825,-0.9825,-0.9825,-0.9572,-0.9614,-0.9615,-0.9663,-0.9671,-0.9705,-0.9717,-0.9732,-0.9745,-0.9784,-0.9807,-0.9812,-0.9824,-0.9851,-0.9876,-0.9877,-0.9888,-0.9902,-0.9902,-0.9837,-0.9829,-0.982,-0.981,-0.9905,-0.9905,-0.997,-0.997,-0.9971]},{"header":{"parameterUnit":"m.s-1","parameterCategory":1,"la1":30.2991,"la2":30.254,"lo1":-89.0895,"lo2":-89.0444,"dy":0.0017,"dx":0.0017,"nx":28,"ny":28,"refTime":"2024-11-28T03:00:00:Z","depth":0,"parameterNumber":3,"parameterNumberName":"V-component_of_WINDS"},"data":[0,0,0,0,0,0,0,0,0,0,0,0,0,0,0,0,0,0,0,0,0,0,0,0,0,0,0,0,0,0,0,0,0,0,0,0,0,0,0,0,0,0,0,0,0,0,0,0,0,0,0,0,0,0,0,0,0,0,-8.339,-8.3392,0,-8.3511,-8.3513,-8.3514,-8.342,-8.3416,-8.3412,-8.3408,-8.3526,-8.3532,-8.3539,0,0,0,0,0,0,0,0,0,0,0,0,0,-8.3071,-8.3077,-8.339,-8.3392,-8.3393,-8.3511,-8.3513,-8.3514,-8.3421,-8.3416,-8.3411,-8.3406,-8.3523,-8.3531,-8.354,0,0,0,0,0,0,0,0,0,0,0,0,0,-8.3203,-8.308,-8.339,-8.3361,-8.3359,-8.3511,-8.3513,-8.3515,-8.3422,-8.3416,-8.3409,-8.3404,-8.3521,-8.3531,-8.3541,-8.3726,0,0,-8.3572,-8.3577,0,0,0,0,0,0,0,0,-8.3195,-8.3214,-8.3364,-8.3363,-8.3362,-8.3444,-8.3443,-8.3585,-8.3423,-8.3398,-8.3408,-8.3401,-8.3503,-8.3514,-8.355,-8.3731,-8.3736,-8.3573,-8.358,-8.3584,-8.3587,0,0,0,0,0,0,0,-8.3186,-8.3209,-8.3438,-8.3366,-8.3365,-8.3339,-8.3352,-8.347,-8.3483,-8.3399,-8.3393,-8.3409,-8.3501,-8.354,-8.3552,-8.3738,-8.3573,-8.3582,-8.3589,-8.3593,-8.4076,-8.4082,0,0,0,0,0,0,-8.3181,-8.3202,-8.3434,-8.3441,-8.3262,-8.335,-8.3364,-8.3424,-8.3481,-8.3484,-8.3414,-8.3404,-8.3526,-8.354,-8.3556,-8.3776,-8.3584,-8.3594,-8.36,-8.4069,-8.4077,-8.4085,0,0,0,0,0,0,-8.3174,-8.3203,-8.3429,-8.332,-8.3347,-8.3362,-8.3431,-8.3429,-8.3469,-8.3492,-8.3493,-8.3452,-8.3522,-8.3541,-8.3685,-8.3779,-8.3598,-8.3608,-8.4062,-8.4072,-8.4081,-8.4218,0,0,0,0,0,0,-8.3166,-8.3201,-8.3273,-8.3322,-8.3353,-8.3558,-8.3436,-8.3436,-8.3488,-8.3476,-8.3528,-8.3531,-8.3518,-8.367,-8.3695,-8.379,-8.3616,-8.4053,-8.4066,-8.4078,-8.4205,-8.4232,-8.4254,0,0,0,0,0,-8.3155,-8.3305,-8.3277,-8.3305,-8.3444,-8.3564,-8.3581,-8.3565,-8.3496,-8.3567,-8.3582,-8.3529,-8.3765,-8.3685,-8.3713,-8.3812,-8.4047,-8.4062,-8.4077,-8.4194,-8.4227,-8.4254,0,0,0,0,0,0,-8.3263,-8.3311,-8.328,-8.3452,-8.3505,-8.3548,-8.3637,-8.36,-8.3672,-8.3658,-8.3633,-8.3645,-8.3796,-8.3818,-8.3729,-8.3994,-8.3894,-8.3916,-8.3974,-8.4005,-8.4029,-8.402,-8.3624,0,0,0,0,0,-8.3308,-8.3404,-8.3439,-8.3586,-8.3615,-8.3622,-8.3674,-8.3657,-8.371,-8.3731,-8.3757,-8.3808,-8.3894,-8.395,-8.403,-8.4208,-8.4218,-8.429,-8.4314,-8.4334,-8.4353,-8.4448,-8.4481,-8.4134,-8.4134,-8.4133,0,0,-8.3399,-8.3437,-8.3499,-8.3609,-8.3649,-8.3746,-8.3641,-8.3749,-8.3821,-8.3747,-8.3884,-8.3905,-8.3961,-8.4122,-8.4194,-8.4145,-8.4451,-8.4353,-8.4369,-8.4377,-8.4467,-8.45,-8.4529,-8.4144,-8.4142,-8.414,0,0,-8.3617,-8.3656,-8.3783,-8.3825,-8.3887,-8.3891,-8.3921,-8.3971,-8.3982,-8.412,-8.4067,-8.4151,-8.4298,-8.4341,-8.4381,-8.4616,-8.457,-8.4642,-8.477,-8.4863,-8.489,-8.4914,-8.4998,-8.5028,-8.4661,-8.4661,-8.4661,0,-8.3723,-8.387,-8.3853,-8.3966,-8.4015,-8.3955,-8.4083,-8.4124,-8.4208,-8.4243,-8.4187,-8.4372,-8.4405,-8.4575,-8.4633,-8.4668,-8.4701,-8.4636,-8.4888,-8.4912,-8.4934,-8.5014,-8.5045,-8.4669,-8.4668,-8.4667,-8.4667,0,-8.3997,-8.41,-8.4195,-8.4281,-8.4341,-8.4461,-8.446,-8.4522,-8.4501,-8.451,-8.4651,-8.4689,-8.4776,-8.4815,-8.4793,-8.4982,-8.495,-8.4892,-8.4791,-8.4976,-8.505,-8.508,-8.4681,-8.4678,-8.4676,-8.4674,0,0,-8.4286,-8.4361,-8.4396,-8.4435,-8.4498,-8.4577,-8.4693,-8.478,-8.4834,-8.4894,-8.499,-8.5117,-8.5064,-8.511,-8.5093,-8.5175,-8.5358,-8.5107,-8.5108,-8.5152,-8.5568,-8.5612,-8.5647,-8.5329,-8.5334,-8.5339,-8.5564,0,-8.4506,-8.4712,-8.47,-8.4892,-8.4987,-8.4931,-8.5032,-8.5081,-8.5093,-8.5173,-8.5184,-8.5275,-8.5198,-8.5226,-8.5305,-8.532,-8.5442,-8.5303,-8.5416,-8.542,-8.5404,-8.5686,-8.5732,-8.5943,-8.5592,-8.5597,-8.5601,0,-8.4791,-8.4864,-8.5066,-8.5117,-8.5156,-8.5247,-8.5326,-8.5404,-8.5458,-8.546,-8.5514,-8.5483,-8.5598,-8.5496,-8.5654,-8.556,-8.5605,-8.5619,-8.5627,-8.5637,-8.5522,-8.5703,-8.6009,-8.6041,-8.5646,-8.5643,-8.5639,0,-8.4982,-8.5129,-8.527,-8.5304,-8.5366,-8.5432,-8.546,-8.5509,-8.5562,-8.563,-8.5664,-8.5744,-8.5788,-8.585,-8.5841,-8.5767,-8.6002,-8.5898,-8.6006,-8.6007,-8.6058,-8.6055,-8.6376,-8.6088,-8.6087,-8.6087,-8.6086,0,-8.5229,-8.5355,-8.5357,-8.5443,-8.5582,-8.5566,-8.5703,-8.5724,-8.5768,-8.5855,-8.5811,-8.5894,-8.5878,-8.596,-8.5954,-8.6085,-8.6105,-8.6109,-8.6106,-8.6114,-8.6113,-8.6143,-8.6128,-8.6095,-8.6093,-8.6091,-8.609,0,-8.5466,-8.5472,-8.5621,-8.5669,-8.5683,-8.5784,-8.5823,-8.5904,-8.5912,-8.6024,-8.6049,-8.6061,-8.6156,-8.6154,-8.626,-8.6256,-8.6418,-8.6397,-8.6401,-8.6396,-8.6504,-8.6494,-8.6855,-8.6902,-8.6584,-8.6587,-8.6589,0,-8.5623,-8.5719,-8.5778,-8.5835,-8.5869,-8.5961,-8.6016,-8.6003,-8.6062,-8.6131,-8.6203,-8.6294,-8.6366,-8.6519,-8.6536,-8.6618,-8.6599,-8.672,-8.6611,-8.6615,-8.6601,-8.6595,-8.6604,-8.6741,-8.6745,-8.6748,-8.675,0,-8.5903,-8.5901,-8.5983,-8.6068,-8.6135,-8.62,-8.6259,-8.6308,-8.6301,-8.6369,-8.6467,-8.6523,-8.6633,-8.6724,-8.6802,-8.6828,-8.6789,-8.6785,-8.6814,-8.6822,-8.682,-8.6823,-8.6459,-8.6776,-8.6773,-8.6772,-8.677,-8.6769,-8.6104,-8.6187,-8.6242,-8.6335,-8.6379,-8.6436,-8.6515,-8.6534,-8.6616,-8.6706,-8.6693,-8.6802,-8.6852,-8.6954,-8.6988,-8.7071,-8.7028,-8.707,-8.7081,-8.7092,-8.7104,-8.6807,-8.7085,-8.7084,-8.7084,-8.7083,-8.7083,0,-8.6381,-8.6414,-8.65,-8.6586,-8.6659,-8.6618,-8.6681,-8.6744,-8.6842,-8.6894,-8.6966,-8.7078,-8.7166,-8.719,-8.7274,-8.7336,-8.732,-8.7359,-8.7354,-8.7361,-8.7138,-8.7104,-8.7371,-8.7371,-8.7371,-8.737,-8.737,-8.737,-8.6534,-8.6672,-8.6678,-8.6837,-8.6868,-8.6976,-8.7016,-8.7068,-8.7109,-8.7237,-8.7311,-8.7327,-8.7368,-8.7455,-8.7533,-8.7537,-8.757,-8.7616,-8.7614,-8.7405,-8.7376,-8.7349,-8.7317,-8.7624,-8.7624,-8.7829,-8.7831,-8.7833]}]]